Vorticity
21 12 12 17 38 6 28 21 -13 16 35 8 26 -24 1 9 13 -11 15 11 7 -3 22 24 -6 -7 -23 27 13 20 17 16 0 2 15 16 32 9 -4 -25 22 10 -28 4
21 17 10 22 20 5 36 -1 32 -62 75 4 -6 41 -39 -29 -11 -13 -32 -22 -6 -12 1 -4 10 -1 -3 -3 -9 12 18 28 12 32 18 1 20 12 18 -5 1 -2 -25 1
22 20 10 21 31 -10 30 8 -2 -26 1 17 9 -2 31 -21 14 17 27 11 24 12 9 5 -1 9 15 8 -2 11 38 -11 -15 -25 -9 31 -1 5 9 16 3 -6 -16 -3
23 16 10 20 18 7 -27 25 -15 43 26 58 -34 50 11 37 1 15 21 6 8 -3 12 5 -1 18 16 2 24 19 3 0 4 3 -3 -23 15 35 -2 11 -12 16 8 9
16 15 12 21 13 11 10 8 -16 37 68 -49 49 -10 15 28 -9 9 -12 4 12 -27 -19 -0 10 -7 -5 -8 10 7 -4 -8 25 15 8 7 -3 4 9 24 29 5 -13 1
15 19 16 12 20 12 -4 20 15 38 33 -24 -13 31 -2 -6 -17 11 -10 12 6 30 16 -3 0 7 35 8 14 29 7 -6 -9 34 18 27 49 8 -2 8 4 2 -4 -2
20 21 13 23 14 14 3 14 -6 54 20 67 -26 36 -38 20 10 19 -3 2 9 5 24 27 16 -3 9 1 -14 5 -1 20 30 19 23 12 -3 20 12 15 16 19 19 15
16 17 2 22 11 13 9 -53 52 -48 43 9 3 46 11 9 -32 -14 28 28 19 21 42 30 34 33 16 18 18 30 9 31 6 -39 1 -27 -1 26 2 17 8 23 16 5
18 13 6 13 11 22 33 -29 63 -7 19 37 16 10 -8 -34 24 -23 -12 1 -14 -35 16 13 10 -5 -11 30 42 41 -4 -3 4 7 -1 -7 31 25 -28 41 6 30 22 26
15 17 21 15 9 12 15 18 -18 9 18 -12 18 29 12 43 -19 19 29 18 -15 -5 8 2 -10 -0 3 -3 9 9 34 19 8 15 3 33 4 33 37 2 -5 38 32 13
-1 38 32 29 19 19 -4 17 14 -22 23 17 -17 -15 9 13 19 41 28 58 57 8 21 31 4 13 -8 8 6 14 5 -7 4 12 0 14 16 3 -7 1 11 -1 -5 25
36 60 24 -7 13 13 -13 11 5 23 25 29 4 10 7 -11 7 16 19 0 25 21 -44 18 35 4 49 27 19 26 18 -23 -2 -1 40 -9 -2 5 31 9 10 15 22 5
8 11 37 73 46 29 17 11 11 17 24 30 23 23 21 26 18 16 39 17 22 32 14 13 -4 -8 12 9 10 39 7 22 -15 -2 21 27 30 15 14 13 -0 -4 10 17
7 12 8 8 27 42 37 39 41 27 9 16 41 29 50 47 36 26 37 41 46 19 19 -7 -14 -2 13 13 -0 9 1 36 6 -0 -14 1 8 20 -3 8 18 19 11 10
11 7 14 19 13 11 -0 11 39 61 -21 -10 5 22 20 21 21 8 35 5 18 14 19 11 -0 11 11 11 11 9 10 1 10 6 10 12 8 23 16 7 2 3 2 2
19 7 9 10 8 7 12 15 4 15 56 -16 -17 19 9 6 17 21 17 8 11 18 13 21 19 17 8 22 22 12 18 15 11 10 7 0 -3 -8 -7 -4 -6 -3 -0 3
8 5 8 11 6 19 13 15 6 16 21 -2 -19 5 12 10 9 10 8 8 9 11 11 10 13 10 9 2 -6 -4 4 2 3 5 5 6 9 8 8 9 12 14 15 15
10 11 10 11 10 11 18 -5 23 16 24 -14 6 25 -7 3 7 1 6 4 6 8 6 9 5 5 4 15 18 13 15 17 20 21 18 15 13 14 15 16 18 19 23 20
12 10 11 14 11 15 9 5 12 8 14 0 45 7 7 5 5 5 2 6 9 8 8 4 5 7 1 14 22 26 15 13 11 9 11 12 14 15 17 25 15 18 19 13
13 16 10 16 17 15 10 12 6 4 7 15 24 12 10 5 6 8 -0 16 9 15 19 18 20 14 14 9 2 9 11 13 9 8 10 17 16 15 27 19 11 9 12 12
13 25 2 11 12 7 5 8 12 14 12 21 14 12 22 18 11 12 4 16 13 12 24 -0 10 24 22 14 14 14 6 7 7 14 21 22 18 23 23 15 13 13 18 26
13 5 10 4 3 7 13 10 10 12 17 24 15 16 16 16 15 4 15 4 7 11 21 1 13 15 10 11 14 14 12 9 15 13 15 27 15 11 21 9 21 22 24 2
11 -1 5 8 13 14 11 10 14 16 18 15 8 8 9 1 -2 17 5 9 15 16 4 11 17 6 10 15 11 14 15 13 14 11 12 14 4 14 7 5 8 -5 6 9
4 8 9 14 14 16 30 20 18 23 26 8 4 3 8 19 -1 17 7 17 8 0 7 12 19 9 6 13 15 11 14 14 10 15 16 13 8 9 12 11 9 -1 3 10
3 10 10 26 25 7 5 13 11 7 14 28 21 13 9 7 4 6 9 13 12 10 15 13 6 11 9 12 9 8 10 10 10 13 13 12 11 11 12 9 5 3 9 7
4 18 24 12 11 4 12 5 14 10 10 4 -1 6 14 12 7 14 10 6 14 16 27 32 28 8 8 8 9 10 10 12 14 13 12 14 14 15 15 18 14 11 11 9
12 15 12 7 7 14 14 8 6 7 1 -1 1 10 11 13 9 12 13 9 17 7 3 7 14 16 12 10 12 12 9 8 9 10 10 10 12 14 14 13 9 4 6 9
Height
2839 2849 2860 2872 2882 2897 2911 2920 2924 2932 2951 2958 2945 2954 2959 2969 2987 2992 3003 3011 3013 3021 3028 3032 3036 3037 3044 3048 3052 3055 3063 3069 3072 3072 3073 3077 3080 3080 3085 3086 3088 3091 3091 3082
2830 2839 2851 2861 2873 2886 2899 2906 2916 2926 2931 2932 2937 2951 2957 2965 2980 2988 2994 3001 3005 3016 3025 3032 3030 3034 3040 3044 3048 3052 3057 3061 3067 3070 3072 3071 3070 3072 3076 3081 3084 3082 3086 3075
2821 2831 2841 2852 2864 2875 2890 2897 2896 2909 2908 2927 2934 2941 2949 2957 2967 2977 2983 2992 3000 3010 3017 3020 3023 3030 3033 3039 3044 3049 3051 3051 3053 3052 3056 3059 3063 3064 3067 3073 3077 3073 3069 3071
2814 2823 2833 2844 2855 2866 2874 2882 2886 2892 2898 2907 2923 2934 2941 2948 2961 2967 2978 2985 2992 3000 3009 3013 3015 3022 3027 3033 3038 3044 3046 3043 3045 3048 3052 3055 3057 3057 3059 3062 3060 3065 3058 3061
2807 2816 2826 2835 2846 2858 2865 2870 2876 2881 2892 2907 2917 2923 2930 2936 2951 2957 2964 2973 2982 2991 2997 3002 3007 3015 3020 3025 3031 3036 3036 3038 3041 3043 3045 3046 3050 3051 3052 3054 3055 3055 3055 3054
2801 2809 2818 2827 2837 2845 2848 2859 2871 2877 2884 2894 2905 2913 2929 2936 2943 2951 2959 2969 2977 2983 2988 2999 3005 3010 3014 3017 3023 3026 3030 3031 3035 3034 3039 3043 3042 3033 3040 3043 3044 3045 3044 3042
2796 2804 2812 2821 2831 2839 2845 2853 2871 2872 2877 2887 2898 2910 2922 2931 2938 2944 2956 2963 2970 2976 2986 2992 2997 3002 3004 3009 3015 3019 3020 3024 3028 3028 3033 3033 3018 3026 3029 3032 3034 3033 3035 3036
2794 2802 2810 2818 2827 2834 2844 2857 2863 2870 2876 2887 2895 2905 2918 2926 2933 2942 2948 2955 2963 2971 2980 2985 2990 2993 2996 2998 3002 3007 3012 3017 3019 3019 3018 3012 3013 3014 3017 3018 3019 3022 3027 3029
2793 2799 2808 2815 2823 2831 2842 2852 2861 2872 2875 2881 2890 2900 2911 2918 2927 2935 2940 2950 2958 2964 2972 2975 2978 2982 2986 2989 2992 2996 3003 3007 3011 3008 3007 3004 3001 3007 3009 3015 3009 3014 3019 3021
2791 2799 2806 2815 2824 2833 2843 2850 2858 2869 2872 2878 2887 2895 2905 2913 2921 2924 2931 2939 2947 2954 2961 2965 2970 2974 2978 2979 2979 2985 2990 2993 2994 2998 2998 2995 2997 3000 3002 3007 3004 3008 3011 3015
2785 2792 2801 2809 2819 2830 2837 2845 2855 2862 2870 2877 2884 2891 2899 2905 2911 2917 2924 2932 2935 2945 2954 2958 2959 2962 2966 2969 2969 2972 2976 2982 2987 2989 2990 2988 2992 2995 2997 2998 3000 3002 3005 3007
2792 2795 2801 2810 2819 2828 2837 2845 2853 2861 2870 2872 2880 2887 2894 2900 2910 2915 2919 2924 2930 2935 2942 2945 2951 2954 2957 2958 2961 2963 2971 2973 2976 2982 2980 2982 2985 2988 2991 2992 2995 2996 2999 3002
2801 2801 2805 2811 2819 2827 2836 2842 2849 2857 2863 2871 2878 2882 2886 2892 2899 2906 2912 2915 2922 2925 2929 2936 2940 2945 2949 2951 2954 2959 2964 2966 2969 2973 2973 2976 2981 2984 2985 2988 2990 2993 2994 2996
2816 2815 2815 2819 2824 2829 2835 2839 2844 2853 2861 2869 2874 2880 2882 2886 2891 2899 2904 2911 2915 2920 2923 2926 2931 2938 2944 2947 2951 2955 2959 2962 2966 2968 2971 2972 2975 2977 2979 2981 2983 2985 2987 2989
2828 2829 2829 2829 2830 2833 2838 2843 2847 2849 2858 2860 2872 2878 2881 2884 2890 2895 2900 2907 2912 2916 2920 2923 2929 2934 2941 2943 2948 2951 2954 2958 2962 2965 2967 2967 2968 2970 2972 2974 2977 2978 2979 2982
2836 2838 2839 2840 2841 2843 2845 2847 2851 2855 2859 2862 2870 2879 2883 2887 2892 2897 2901 2906 2911 2915 2917 2923 2928 2933 2938 2941 2943 2947 2952 2956 2958 2958 2958 2959 2962 2966 2967 2968 2970 2971 2970 2971
2843 2844 2846 2847 2849 2850 2853 2855 2858 2861 2865 2867 2874 2881 2885 2890 2897 2900 2904 2910 2913 2916 2919 2924 2928 2932 2934 2936 2940 2946 2949 2950 2950 2951 2953 2954 2956 2957 2958 2958 2960 2960 2960 2961
2849 2850 2851 2853 2854 2857 2859 2861 2863 2865 2869 2873 2878 2885 2890 2895 2899 2902 2906 2910 2915 2917 2921 2925 2928 2930 2932 2934 2936 2939 2940 2942 2944 2945 2945 2946 2947 2947 2948 2948 2948 2948 2949 2950
2853 2854 2855 2857 2860 2862 2864 2866 2868 2870 2876 2877 2881 2885 2893 2897 2900 2904 2908 2911 2915 2918 2920 2923 2926 2927 2929 2931 2933 2935 2936 2937 2938 2939 2940 2940 2938 2939 2940 2940 2941 2940 2942 2941
2856 2858 2859 2859 2862 2864 2867 2870 2873 2875 2878 2881 2884 2888 2892 2898 2901 2905 2910 2911 2914 2916 2919 2920 2921 2923 2926 2928 2929 2930 2931 2932 2933 2934 2935 2933 2932 2932 2933 2934 2935 2936 2936 2936
2861 2861 2862 2864 2865 2867 2869 2872 2876 2878 2880 2883 2886 2890 2893 2898 2901 2905 2908 2910 2913 2915 2917 2919 2920 2920 2922 2924 2925 2927 2928 2929 2929 2929 2928 2927 2927 2928 2928 2930 2931 2931 2930 2929
2865 2865 2866 2867 2868 2870 2872 2874 2877 2878 2881 2883 2887 2890 2893 2897 2902 2905 2909 2910 2912 2913 2915 2917 2915 2917 2919 2921 2922 2924 2925 2926 2926 2925 2924 2924 2925 2926 2925 2927 2928 2928 2926 2926
2868 2868 2868 2869 2871 2872 2874 2876 2876 2877 2880 2883 2887 2890 2894 2898 2902 2904 2906 2907 2910 2911 2913 2914 2915 2916 2918 2919 2920 2921 2922 2922 2922 2923 2923 2923 2924 2924 2925 2925 2926 2926 2925 2924
2871 2871 2872 2873 2874 2876 2877 2878 2879 2881 2882 2885 2889 2892 2895 2897 2900 2902 2905 2908 2910 2911 2911 2911 2912 2914 2916 2916 2918 2919 2920 2920 2920 2920 2921 2921 2921 2922 2922 2923 2923 2923 2923 2923
2874 2875 2876 2877 2878 2879 2880 2881 2883 2885 2886 2888 2891 2893 2896 2898 2901 2902 2905 2907 2908 2909 2908 2908 2911 2913 2914 2915 2916 2917 2918 2917 2917 2918 2918 2918 2918 2919 2919 2919 2920 2920 2920 2920
2877 2878 2879 2880 2882 2883 2884 2885 2886 2888 2889 2890 2893 2895 2897 2899 2901 2903 2905 2907 2905 2906 2906 2906 2908 2910 2911 2913 2913 2914 2914 2914 2915 2915 2915 2915 2915 2915 2916 2916 2916 2916 2916 2917
2879 2880 2881 2883 2884 2885 2886 2888 2889 2890 2892 2894 2895 2897 2899 2901 2901 2902 2902 2902 2902 2902 2903 2905 2907 2908 2909 2910 2911 2912 2912 2913 2913 2913 2913 2912 2913 2912 2912 2912 2912 2913 2913 2914